Weather History for Mount Pleasant, IA

Change the Weather History Date:

Friday, October 26, 2012

  Actual Average Record
Temperature  
Mean Temperature 39 °F -  
Max Temperature 47 °F 60 °F 84 °F (1963)
Min Temperature 31 °F 39 °F 20 °F (1962)
Degree Days  
Heating Degree Days 26    
Moisture  
Dew Point 27 °F    
Average Humidity 64    
Maximum Humidity 83    
Minimum Humidity 44    
Precipitation  
Precipitation 0.00 in - - ()
Sea Level Pressure  
Sea Level Pressure 30.35 in    
Wind  
Wind Speed 11 mph (NW)    
Max Wind Speed 21 mph    
Max Gust Speed 28 mph    
Visibility 10 miles    
Events      
Averages and records for this station are not official NWS values.
T = Trace of Precipitation, MM = Missing Value Source: NWS Daily Summary

Daily Weather History Graph

Daily Weather History Graph

Search for Another Location

Airport:

Trip Planner

Search our weather history database for the weather conditions in past years. The results will help you decide how hot, cold, wet, or windy it might be!

Date:

Astronomy

Oct. 26, 2012 Rise Set
Actual Time 7:30 AM CDT 6:08 PM CDT
Civil Twilight 7:02 AM CDT 6:37 PM CDT
Nautical Twilight 6:29 AM CDT 7:09 PM CDT
Astronomical Twilight 5:58 AM CDT 7:41 PM CDT
Moon 4:25 PM CDT (10/26) 4:25 AM CDT (10/26)
Length of Visible Light 11h 34m
Length of Day
10h 38m
Waxing Gibbous, 91% of the Moon is Illuminated
Oct 26
Waxing Gibbous
Oct 29
Full
Nov 6
Last Quarter
Nov 13
New
Nov 20
First Quarter

Hourly Weather History & Observations

Time (CDT) Temp. Windchill Dew Point Humidity Pressure Visibility Wind Dir Wind Speed Gust Speed Precip Events Conditions
12:15 AM 38.7 °F 30.5 °F 29.7 °F 70% 30.24 in 10.0 mi NW 13.8 mph 23.0 mph N/A   Overcast
12:35 AM 38.3 °F 28.1 °F 28.4 °F 68% 30.25 in 10.0 mi NNW 20.7 mph 25.3 mph N/A   Overcast
1:15 AM 38.1 °F 29.1 °F 28.2 °F 68% 30.26 in 10.0 mi NNW 16.1 mph 19.6 mph N/A   Overcast
1:35 AM 37.9 °F 29.6 °F 27.7 °F 67% 30.26 in 10.0 mi NW 13.8 mph 24.2 mph N/A   Overcast
1:55 AM 37.6 °F 27.7 °F 27.9 °F 68% 30.27 in 10.0 mi NW 18.4 mph 24.2 mph N/A   Overcast
2:15 AM 36.0 °F 29.0 °F 27.5 °F 71% 30.28 in 10.0 mi NW 9.2 mph 17.3 mph N/A   Scattered Clouds
2:35 AM 35.2 °F 28.8 °F 27.3 °F 73% 30.28 in 10.0 mi NW 8.1 mph - N/A   Clear
2:55 AM 34.7 °F 28.1 °F 27.0 °F 73% 30.28 in 10.0 mi NW 8.1 mph - N/A   Clear
3:15 AM 34.3 °F 27.7 °F 26.8 °F 74% 30.28 in 10.0 mi NW 8.1 mph - N/A   Clear
3:35 AM 34.2 °F 28.2 °F 26.6 °F 74% 30.28 in 10.0 mi NW 6.9 mph - N/A   Clear
3:55 AM 33.8 °F 27.7 °F 26.6 °F 75% 30.28 in 10.0 mi NW 6.9 mph - N/A   Clear
4:15 AM 33.4 °F 29.1 °F 26.6 °F 76% 30.29 in 10.0 mi NW 4.6 mph - N/A   Clear
4:35 AM 33.3 °F 27.9 °F 26.2 °F 75% 30.30 in 10.0 mi NW 5.8 mph - N/A   Clear
4:55 AM 32.9 °F 28.5 °F 26.4 °F 77% 30.30 in 10.0 mi NW 4.6 mph - N/A   Clear
5:15 AM 32.9 °F 27.5 °F 26.2 °F 76% 30.31 in 10.0 mi NW 5.8 mph - N/A   Clear
5:35 AM 32.0 °F 26.4 °F 26.2 °F 79% 30.32 in 10.0 mi WNW 5.8 mph - N/A   Clear
5:55 AM 32.0 °F 27.5 °F 26.4 °F 80% 30.33 in 10.0 mi West 4.6 mph - N/A   Clear
6:15 AM 31.5 °F 26.8 °F 26.2 °F 81% 30.35 in 10.0 mi West 4.6 mph - N/A   Clear
6:35 AM 31.1 °F 25.4 °F 26.6 °F 83% 30.35 in 10.0 mi West 5.8 mph - N/A   Clear
6:55 AM 31.1 °F 25.4 °F 26.2 °F 82% 30.36 in 10.0 mi WNW 5.8 mph - N/A   Clear
7:15 AM 31.6 °F 26.0 °F 26.6 °F 82% 30.36 in 10.0 mi WNW 5.8 mph - N/A   Clear
8:35 AM 33.8 °F 26.4 °F 27.1 °F 77% 30.39 in 10.0 mi NW 9.2 mph - N/A   Clear
8:55 AM 34.9 °F 27.1 °F 27.7 °F 75% 30.39 in 10.0 mi NW 10.4 mph - N/A   Clear
9:15 AM 36.5 °F 27.8 °F 27.3 °F 69% 30.39 in 10.0 mi NW 13.8 mph 20.7 mph N/A   Clear
9:35 AM 37.8 °F 28.3 °F 27.3 °F 66% 30.38 in 10.0 mi NNW 17.3 mph 21.9 mph N/A   Clear
10:15 AM 39.6 °F 30.6 °F 27.3 °F 62% 30.39 in 10.0 mi NNW 17.3 mph 23.0 mph N/A   Clear
10:35 AM 41.0 °F 31.6 °F 26.4 °F 56% 30.38 in 10.0 mi North 20.7 mph 27.6 mph N/A   Clear
10:55 AM 42.1 °F 34.2 °F 26.1 °F 53% 30.39 in 10.0 mi North 16.1 mph 26.5 mph N/A   Clear
11:15 AM 41.9 °F 33.1 °F 25.2 °F 52% 30.40 in 10.0 mi NNW 19.6 mph 26.5 mph N/A   Clear
11:35 AM 42.4 °F 35.0 °F 26.8 °F 54% 30.40 in 10.0 mi NNW 15.0 mph 20.7 mph N/A   Clear
11:55 AM 44.1 °F 37.1 °F 25.5 °F 48% 30.40 in 10.0 mi North 15.0 mph 20.7 mph N/A   Clear
12:15 PM 44.2 °F 38.4 °F 26.2 °F 49% 30.40 in 10.0 mi NNW 11.5 mph 20.7 mph N/A   Clear
12:35 PM 44.8 °F 39.4 °F 25.3 °F 47% 30.39 in 10.0 mi NNW 10.4 mph 20.7 mph N/A   Clear
12:55 PM 45.7 °F 39.8 °F 26.2 °F 47% 30.39 in 10.0 mi NW 12.7 mph 18.4 mph N/A   Clear
1:15 PM 45.3 °F 42.3 °F 25.9 °F 47% 30.39 in 10.0 mi NNW 5.8 mph - N/A   Clear
1:35 PM 45.5 °F 38.9 °F 26.1 °F 47% 30.38 in 10.0 mi NW 15.0 mph 19.6 mph N/A   Clear
1:55 PM 46.4 °F 40.4 °F 25.7 °F 44% 30.38 in 10.0 mi NNW 13.8 mph 18.4 mph N/A   Clear
2:15 PM 46.4 °F 41.9 °F 26.2 °F 45% 30.38 in 10.0 mi NW 9.2 mph 18.4 mph N/A   Clear
2:35 PM 46.0 °F 40.2 °F 26.1 °F 46% 30.36 in 10.0 mi NNW 12.7 mph 17.3 mph N/A   Clear
2:55 PM 47.5 °F - 26.6 °F 44% 30.36 in 10.0 mi NW 12.7 mph 17.3 mph N/A   Clear
3:15 PM 47.1 °F - 26.6 °F 45% 30.35 in 10.0 mi NNW 16.1 mph 20.7 mph N/A   Clear
3:35 PM 45.5 °F 39.9 °F 26.2 °F 47% 30.35 in 10.0 mi WNW 11.5 mph - N/A   Clear
3:55 PM 45.0 °F 38.2 °F 25.3 °F 46% 30.35 in 10.0 mi NNW 15.0 mph 18.4 mph N/A   Clear
4:15 PM 46.0 °F 40.6 °F 26.2 °F 46% 30.35 in 10.0 mi NW 11.5 mph - N/A   Clear
4:35 PM 46.2 °F 40.5 °F 26.1 °F 45% 30.35 in 10.0 mi NW 12.7 mph 17.3 mph N/A   Clear
4:55 PM 45.5 °F 39.2 °F 25.7 °F 46% 30.35 in 10.0 mi NW 13.8 mph 19.6 mph N/A   Clear
5:15 PM 45.0 °F 39.3 °F 26.2 °F 48% 30.35 in 10.0 mi NW 11.5 mph - N/A   Clear
5:35 PM 43.7 °F 38.1 °F 26.2 °F 50% 30.35 in 10.0 mi NNW 10.4 mph 18.4 mph N/A   Clear
5:55 PM 42.4 °F 37.0 °F 26.4 °F 53% 30.35 in 10.0 mi NNW 9.2 mph - N/A   Clear
6:15 PM 41.0 °F 37.1 °F 27.3 °F 58% 30.36 in 10.0 mi NNW 5.8 mph - N/A   Clear
6:35 PM 39.4 °F 34.5 °F 27.5 °F 62% 30.36 in 10.0 mi NNW 6.9 mph - N/A   Clear
6:55 PM 37.8 °F 33.3 °F 28.0 °F 68% 30.36 in 10.0 mi NNW 5.8 mph - N/A   Clear
7:15 PM 37.4 °F 32.1 °F 28.0 °F 69% 30.37 in 10.0 mi NNW 6.9 mph - N/A   Clear
7:35 PM 37.8 °F 32.5 °F 28.2 °F 68% 30.37 in 10.0 mi NW 6.9 mph - N/A   Clear
7:55 PM 37.4 °F 32.1 °F 28.4 °F 70% 30.37 in 10.0 mi NNW 6.9 mph - N/A   Clear
8:15 PM 36.7 °F 30.5 °F 28.4 °F 72% 30.37 in 10.0 mi NNW 8.1 mph - N/A   Clear
8:35 PM 36.5 °F 29.7 °F 28.2 °F 72% 30.37 in 10.0 mi NNW 9.2 mph - N/A   Clear
8:55 PM 36.5 °F 28.7 °F 27.9 °F 71% 30.38 in 10.0 mi NNW 11.5 mph - N/A   Clear
9:15 PM 36.1 °F 28.2 °F 27.5 °F 71% 30.38 in 10.0 mi NNW 11.5 mph - N/A   Clear
9:35 PM 35.6 °F 27.5 °F 27.5 °F 72% 30.38 in 10.0 mi NNW 11.5 mph - N/A   Clear
9:55 PM 35.2 °F 27.1 °F 27.3 °F 73% 30.38 in 10.0 mi NNW 11.5 mph - N/A   Clear
10:15 PM 34.9 °F 27.7 °F 27.3 °F 74% 30.38 in 10.0 mi NNW 9.2 mph - N/A   Clear
10:35 PM 34.7 °F 27.5 °F 27.3 °F 74% 30.38 in 10.0 mi NNW 9.2 mph - N/A   Clear
10:55 PM 34.2 °F 27.5 °F 27.1 °F 75% 30.38 in 10.0 mi NNW 8.1 mph - N/A   Clear
11:15 PM 33.3 °F 25.7 °F 27.3 °F 79% 30.38 in 10.0 mi NNW 9.2 mph - N/A   Clear
11:35 PM 32.5 °F 25.5 °F 27.3 °F 81% 30.38 in 10.0 mi NNW 8.1 mph - N/A   Clear
11:55 PM 32.5 °F 25.5 °F 27.1 °F 80% 30.38 in 10.0 mi NNW 8.1 mph - N/A   Clear